EN

Hourly Weather Lesieniec

Today, 28 November, Saturday

Time Temperature Precipitation Wind Pressure Humidity
00:00 +1°C° 0 mm 4 mps 744 mmHg 77%
01:00 +1°C° 0 mm 4 mps 744 mmHg 77%
02:00 +1°C° 0 mm 4 mps 744 mmHg 77%
03:00 +1°C° 0 mm 4 mps 744 mmHg 76%
04:00 +1°C° 0 mm 4 mps 744 mmHg 76%
05:00 +1°C° 0 mm 4 mps 744 mmHg 75%
06:00 +1°C° 0 mm 4 mps 744 mmHg 74%
07:00 0°C° 0 mm 4 mps 744 mmHg 74%
08:00 0°C° 0.1 mm 4 mps 745 mmHg 78%
09:00 0°C° 0.1 mm 4 mps 745 mmHg 83%
10:00 0°C° 0.1 mm 5 mps 745 mmHg 88%
11:00 0°C° 0 mm 4 mps 745 mmHg 82%
12:00 0°C° 0 mm 4 mps 745 mmHg 76%
13:00 0°C° 0 mm 4 mps 745 mmHg 70%
14:00 +1°C° 0 mm 3 mps 745 mmHg 70%
15:00 +1°C° 0 mm 3 mps 745 mmHg 70%
16:00 0°C° 0 mm 3 mps 745 mmHg 70%
17:00 0°C° 0 mm 3 mps 745 mmHg 74%
18:00 0°C° 0 mm 3 mps 745 mmHg 77%
19:00 0°C° 0 mm 3 mps 745 mmHg 81%
20:00 -1°C° 0 mm 3 mps 745 mmHg 85%
21:00 -1°C° 0 mm 3 mps 745 mmHg 90%
22:00 -1°C° 0 mm 3 mps 745 mmHg 94%
23:00 -1°C° 0.2 mm 3 mps 745 mmHg 95%

Tomorrow, 29 November, Sunday

Time Temperature Precipitation Wind Pressure Humidity
00:00 -1°C° 0.2 mm 3 mps 745 mmHg 96%
01:00 -1°C° 0.2 mm 2 mps 745 mmHg 97%
02:00 -1°C° 0.3 mm 3 mps 745 mmHg 95%
03:00 -1°C° 0.3 mm 3 mps 744 mmHg 94%
04:00 -2°C° 0.3 mm 4 mps 744 mmHg 92%
05:00 -2°C° 0 mm 3 mps 744 mmHg 93%
06:00 -2°C° 0 mm 3 mps 745 mmHg 93%
07:00 -2°C° 0 mm 2 mps 745 mmHg 94%
08:00 -2°C° 0 mm 2 mps 745 mmHg 91%
09:00 -2°C° 0 mm 2 mps 745 mmHg 88%
10:00 -1°C° 0 mm 2 mps 745 mmHg 85%
11:00 -1°C° 0 mm 2 mps 745 mmHg 84%
12:00 -1°C° 0 mm 2 mps 745 mmHg 83%
13:00 +1°C° 0 mm 1 mps 745 mmHg 82%
14:00 +1°C° 0.1 mm 1 mps 745 mmHg 84%
15:00 -1°C° 0.1 mm 2 mps 745 mmHg 86%
16:00 -1°C° 0.1 mm 2 mps 745 mmHg 88%
17:00 -2°C° 0 mm 2 mps 745 mmHg 89%
18:00 -2°C° 0 mm 2 mps 745 mmHg 89%
19:00 -2°C° 0 mm 2 mps 746 mmHg 90%
20:00 0°C° 0 mm 1 mps 746 mmHg 90%
21:00 -1°C° 0 mm 1 mps 746 mmHg 91%
22:00 -1°C° 0 mm 1 mps 746 mmHg 92%
23:00 -1°C° 0 mm 1 mps 746 mmHg 92%

Day after tomorrow, 30 November, Monday

Time Temperature Precipitation Wind Pressure Humidity
00:00 -1°C° 0 mm 1 mps 747 mmHg 92%
01:00 -1°C° 0 mm 1 mps 747 mmHg 92%
02:00 -1°C° 0 mm 1 mps 747 mmHg 92%
03:00 -1°C° 0 mm 1 mps 747 mmHg 91%
04:00 -1°C° 0 mm 1 mps 747 mmHg 91%
05:00 -1°C° 0 mm 1 mps 747 mmHg 91%
06:00 -1°C° 0 mm 1 mps 747 mmHg 90%
07:00 -2°C° 0 mm 1 mps 748 mmHg 90%
08:00 -3°C° 0 mm 2 mps 748 mmHg 86%
09:00 -2°C° 0 mm 2 mps 748 mmHg 83%
10:00 -2°C° 0 mm 2 mps 748 mmHg 79%
11:00 -1°C° 0 mm 3 mps 749 mmHg 78%
12:00 -1°C° 0 mm 3 mps 749 mmHg 78%
13:00 0°C° 0 mm 3 mps 749 mmHg 77%
14:00 0°C° 0 mm 3 mps 748 mmHg 77%
15:00 -1°C° 0 mm 3 mps 748 mmHg 77%
16:00 -1°C° 0 mm 2 mps 748 mmHg 77%
17:00 -1°C° 0 mm 2 mps 748 mmHg 80%
18:00 -1°C° 0 mm 2 mps 749 mmHg 82%
19:00 -1°C° 0 mm 2 mps 749 mmHg 84%
20:00 -1°C° 0 mm 2 mps 749 mmHg 87%
21:00 -1°C° 0 mm 2 mps 749 mmHg 90%
22:00 -1°C° 0 mm 3 mps 748 mmHg 93%
23:00 -1°C° 0 mm 3 mps 748 mmHg 92%

1 December, Tuesday

Time Temperature Precipitation Wind Pressure Humidity
00:00 -1°C° 0 mm 3 mps 748 mmHg 91%
01:00 -1°C° 0 mm 2 mps 748 mmHg 91%
02:00 -1°C° 0 mm 3 mps 748 mmHg 89%
03:00 -2°C° 0 mm 3 mps 747 mmHg 88%
04:00 -2°C° 0 mm 3 mps 747 mmHg 87%
05:00 -2°C° 0 mm 3 mps 747 mmHg 86%
06:00 -4°C° 0 mm 3 mps 747 mmHg 86%
07:00 -4°C° 0 mm 4 mps 746 mmHg 85%
08:00 -3°C° 0 mm 4 mps 746 mmHg 80%
09:00 -4°C° 0 mm 5 mps 746 mmHg 75%
10:00 -2°C° 0 mm 5 mps 746 mmHg 71%
11:00 -2°C° 0 mm 5 mps 746 mmHg 69%
12:00 -1°C° 0 mm 4 mps 746 mmHg 67%
13:00 -1°C° 0 mm 4 mps 746 mmHg 66%
14:00 -2°C° 0 mm 4 mps 746 mmHg 69%
15:00 -1°C° 0 mm 3 mps 745 mmHg 72%
16:00 -2°C° 0 mm 3 mps 745 mmHg 75%
17:00 -2°C° 0 mm 3 mps 746 mmHg 75%
18:00 -2°C° 0 mm 3 mps 746 mmHg 75%
19:00 -2°C° 0 mm 3 mps 746 mmHg 76%
20:00 -2°C° 0 mm 3 mps 746 mmHg 76%
21:00 -2°C° 0 mm 3 mps 747 mmHg 76%
22:00 -2°C° 0 mm 3 mps 747 mmHg 76%
23:00 -2°C° 0 mm 3 mps 747 mmHg 77%

2 December, Wednesday

Time Temperature Precipitation Wind Pressure Humidity
00:00 -4°C° 0 mm 3 mps 747 mmHg 78%
01:00 -3°C° 0 mm 2 mps 747 mmHg 79%
02:00 -3°C° 0 mm 2 mps 747 mmHg 79%
03:00 -3°C° 0 mm 2 mps 747 mmHg 79%
04:00 -3°C° 0 mm 2 mps 747 mmHg 79%
05:00 -3°C° 0 mm 2 mps 747 mmHg 79%
06:00 -3°C° 0 mm 2 mps 747 mmHg 80%
07:00 -3°C° 0 mm 2 mps 747 mmHg 80%
08:00 -3°C° 0 mm 2 mps 747 mmHg 76%
09:00 -2°C° 0 mm 2 mps 747 mmHg 73%
10:00 -1°C° 0 mm 2 mps 747 mmHg 70%
11:00 -1°C° 0 mm 3 mps 747 mmHg 68%
12:00 0°C° 0 mm 3 mps 747 mmHg 66%
13:00 0°C° 0 mm 3 mps 746 mmHg 65%
14:00 -1°C° 0 mm 2 mps 746 mmHg 69%
15:00 -2°C° 0 mm 2 mps 746 mmHg 73%
16:00 -2°C° 0 mm 2 mps 746 mmHg 77%
17:00 -3°C° 0 mm 2 mps 746 mmHg 77%
18:00 -3°C° 0 mm 2 mps 746 mmHg 78%
19:00 -3°C° 0 mm 2 mps 746 mmHg 78%
20:00 -3°C° 0 mm 2 mps 746 mmHg 78%
21:00 -3°C° 0 mm 2 mps 746 mmHg 79%
22:00 -3°C° 0 mm 2 mps 746 mmHg 79%
23:00 -3°C° 0 mm 2 mps 746 mmHg 79%

3 December, Thursday

Time Temperature Precipitation Wind Pressure Humidity
00:00 -3°C° 0 mm 2 mps 746 mmHg 79%
01:00 -3°C° 0 mm 2 mps 746 mmHg 79%
02:00 -3°C° 0 mm 2 mps 745 mmHg 79%
03:00 -3°C° 0 mm 2 mps 745 mmHg 78%
04:00 -3°C° 0 mm 2 mps 745 mmHg 78%
05:00 -4°C° 0 mm 2 mps 745 mmHg 78%
06:00 -4°C° 0 mm 2 mps 745 mmHg 77%
07:00 -4°C° 0 mm 2 mps 745 mmHg 76%
08:00 -3°C° 0 mm 2 mps 745 mmHg 73%
09:00 -3°C° 0 mm 2 mps 744 mmHg 70%
10:00 -2°C° 0 mm 2 mps 744 mmHg 66%
11:00 -2°C° 0 mm 2 mps 744 mmHg 65%
12:00 -1°C° 0 mm 2 mps 744 mmHg 64%
13:00 -1°C° 0 mm 2 mps 744 mmHg 63%
14:00 -1°C° 0 mm 2 mps 743 mmHg 66%
15:00 -2°C° 0 mm 3 mps 743 mmHg 68%
16:00 -4°C° 0 mm 3 mps 743 mmHg 70%
17:00 -4°C° 0 mm 3 mps 742 mmHg 70%
18:00 -4°C° 0 mm 3 mps 742 mmHg 69%
19:00 -4°C° 0 mm 3 mps 742 mmHg 69%
20:00 -4°C° 0 mm 3 mps 742 mmHg 70%
21:00 -4°C° 0 mm 3 mps 741 mmHg 72%
22:00 -4°C° 0 mm 3 mps 741 mmHg 73%
23:00 -4°C° 0 mm 3 mps 741 mmHg 74%
Show more

We Need Your Consent

Meteoprog and our Service Providers may store and access personal data such as cookies, device identifiers or other similar technologies on your device and process such data to personalise content and ads, as well as provide social media features and to analyse the traffic.

  • Store and/or access information on your device

    Cookies, device identifiers or other information can be stored or accessed on your device for the purposes indicated above.

  • Personalised ads and content, ad and content measurement, audience insights, and products development

    Ads and content can be personalised based on a profile. More data can be added to better personalise ads and content. Ad and content performance can be measured. Insights about the audience who saw the ads and content can be derived. Such data can be used to develop or improve user’s experience, systems and software.

By clicking ‘I Agree’ you will allow the use of indicated cookies, device identifiers, web beacons or other similar technologies. Your settings can be changed in the browser on your device.

For certain purposes, legitimate interests may be relied on, rather than consent. You can read more about this in our Privacy and Cookie Policy.